Year,Month,Day,Hour,Minute,Value (Times are PST for temperature in C)
2009,08,20,00,00,19.60
2009,08,20,00,01,19.50
2009,08,20,00,02,19.50
2009,08,20,00,03,19.50
2009,08,20,00,04,19.50
2009,08,20,00,05,19.50
2009,08,20,00,06,19.40
2009,08,20,00,07,19.40
2009,08,20,00,08,19.40
2009,08,20,00,09,19.40
2009,08,20,00,10,19.40
2009,08,20,00,11,19.40
2009,08,20,00,12,19.30
2009,08,20,00,13,19.30
2009,08,20,00,14,19.30
2009,08,20,00,15,19.30
2009,08,20,00,16,19.30
2009,08,20,00,17,19.30
2009,08,20,00,18,19.30
2009,08,20,00,19,19.20
2009,08,20,00,20,19.20
2009,08,20,00,21,19.20
2009,08,20,00,22,19.20
2009,08,20,00,23,19.20
2009,08,20,00,24,19.10
2009,08,20,00,25,19.10
2009,08,20,00,26,19.10
2009,08,20,00,27,19.10
2009,08,20,00,28,19.10
2009,08,20,00,29,19.10
2009,08,20,00,30,19.10
2009,08,20,00,31,19.10
2009,08,20,00,32,19.00
2009,08,20,00,33,18.90
2009,08,20,00,34,18.90
2009,08,20,00,35,18.90
2009,08,20,00,36,18.90
2009,08,20,00,37,18.90
2009,08,20,00,38,18.90
2009,08,20,00,39,18.90
2009,08,20,00,40,18.90
2009,08,20,00,41,18.90
2009,08,20,00,42,18.80
2009,08,20,00,43,18.80
2009,08,20,00,44,18.80
2009,08,20,00,45,18.80
2009,08,20,00,46,18.70
2009,08,20,00,47,18.70
2009,08,20,00,48,18.70
2009,08,20,00,49,18.70
2009,08,20,00,50,18.70
2009,08,20,00,51,18.70
2009,08,20,00,52,18.70
2009,08,20,00,53,18.70
2009,08,20,00,54,18.70
2009,08,20,00,55,18.60
2009,08,20,00,56,18.60
2009,08,20,00,57,18.60
2009,08,20,00,58,18.60
2009,08,20,00,59,18.60
2009,08,20,01,00,18.60
2009,08,20,01,01,18.60
2009,08,20,01,02,18.60
2009,08,20,01,03,18.60
2009,08,20,01,04,18.60
2009,08,20,01,05,18.60
2009,08,20,01,06,18.60
2009,08,20,01,07,18.50
2009,08,20,01,08,18.50
2009,08,20,01,09,18.50
2009,08,20,01,10,18.50
2009,08,20,01,11,18.50
2009,08,20,01,12,18.50
2009,08,20,01,13,18.50
2009,08,20,01,14,18.50
2009,08,20,01,15,18.50
2009,08,20,01,16,18.50
2009,08,20,01,17,18.50
2009,08,20,01,18,18.50
2009,08,20,01,19,18.50
2009,08,20,01,20,18.60
2009,08,20,01,21,18.60
2009,08,20,01,22,18.60
2009,08,20,01,23,18.60
2009,08,20,01,24,18.60
2009,08,20,01,25,18.50
2009,08,20,01,26,18.50
2009,08,20,01,27,18.50
2009,08,20,01,28,18.50
2009,08,20,01,29,18.50
2009,08,20,01,30,18.40
2009,08,20,01,31,18.40
2009,08,20,01,32,18.40
2009,08,20,01,33,18.30
2009,08,20,01,34,18.30
2009,08,20,01,35,18.30
2009,08,20,01,36,18.30
2009,08,20,01,37,18.30
2009,08,20,01,38,18.30
2009,08,20,01,39,18.40
2009,08,20,01,40,18.40
2009,08,20,01,41,18.40
2009,08,20,01,42,18.30
2009,08,20,01,43,18.30
2009,08,20,01,44,18.30
2009,08,20,01,45,18.30
2009,08,20,01,46,18.30
2009,08,20,01,47,18.30
2009,08,20,01,48,18.30
2009,08,20,01,49,18.30
2009,08,20,01,50,18.30
2009,08,20,01,51,18.30
2009,08,20,01,52,18.20
2009,08,20,01,53,18.20
2009,08,20,01,54,18.20
2009,08,20,01,55,18.20
2009,08,20,01,56,18.20
2009,08,20,01,57,18.20
2009,08,20,01,58,18.20
2009,08,20,01,59,18.20
2009,08,20,02,00,18.20
2009,08,20,02,01,18.20
2009,08,20,02,02,18.20
2009,08,20,02,03,18.20
2009,08,20,02,04,18.20
2009,08,20,02,05,18.20
2009,08,20,02,06,18.20
2009,08,20,02,07,18.20
2009,08,20,02,08,18.20
2009,08,20,02,09,18.20
2009,08,20,02,10,18.20
2009,08,20,02,11,18.20
2009,08,20,02,12,18.20
2009,08,20,02,13,18.20
2009,08,20,02,14,18.20
2009,08,20,02,15,18.20
2009,08,20,02,16,18.20
2009,08,20,02,17,18.20
2009,08,20,02,18,18.20
2009,08,20,02,19,18.30
2009,08,20,02,20,18.30
2009,08,20,02,21,18.30
2009,08,20,02,22,18.30
2009,08,20,02,23,18.30
2009,08,20,02,24,18.20
2009,08,20,02,25,18.20
2009,08,20,02,26,18.20
2009,08,20,02,27,18.20
2009,08,20,02,28,18.20
2009,08,20,02,29,18.20
2009,08,20,02,30,18.20
2009,08,20,02,31,18.20
2009,08,20,02,32,18.20
2009,08,20,02,33,18.10
2009,08,20,02,34,18.10
2009,08,20,02,35,18.10
2009,08,20,02,36,18.00
2009,08,20,02,37,17.90
2009,08,20,02,38,17.90
2009,08,20,02,39,17.90
2009,08,20,02,40,17.90
2009,08,20,02,41,17.90
2009,08,20,02,42,17.90
2009,08,20,02,43,17.80
2009,08,20,02,44,17.80
2009,08,20,02,45,17.80
2009,08,20,02,46,17.80
2009,08,20,02,47,17.80
2009,08,20,02,48,17.70
2009,08,20,02,49,17.70
2009,08,20,02,50,17.60
2009,08,20,02,51,17.50
2009,08,20,02,52,17.50
2009,08,20,02,53,17.40
2009,08,20,02,54,17.30
2009,08,20,02,55,17.30
2009,08,20,02,56,17.30
2009,08,20,02,57,17.20
2009,08,20,02,58,17.10
2009,08,20,02,59,17.10
2009,08,20,03,00,17.10
2009,08,20,03,01,17.10
2009,08,20,03,02,17.10
2009,08,20,03,03,17.00
2009,08,20,03,04,17.00
2009,08,20,03,05,17.00
2009,08,20,03,06,17.00
2009,08,20,03,07,17.00
2009,08,20,03,08,17.00
2009,08,20,03,09,17.00
2009,08,20,03,10,17.00
2009,08,20,03,11,17.00
2009,08,20,03,12,17.00
2009,08,20,03,13,17.00
2009,08,20,03,14,17.10
2009,08,20,03,15,17.10
2009,08,20,03,16,17.10
2009,08,20,03,17,17.10
2009,08,20,03,18,17.20
2009,08,20,03,19,17.20
2009,08,20,03,20,17.20
2009,08,20,03,21,17.20
2009,08,20,03,22,17.30
2009,08,20,03,23,17.30
2009,08,20,03,24,17.30
2009,08,20,03,25,17.30
2009,08,20,03,26,17.40
2009,08,20,03,27,17.40
2009,08,20,03,28,17.40
2009,08,20,03,29,17.50
2009,08,20,03,30,17.50
2009,08,20,03,31,17.60
2009,08,20,03,32,17.60
2009,08,20,03,33,17.60
2009,08,20,03,34,17.60
2009,08,20,03,35,17.60
2009,08,20,03,36,17.60
2009,08,20,03,37,17.60
2009,08,20,03,38,17.60
2009,08,20,03,39,17.70
2009,08,20,03,40,17.70
2009,08,20,03,41,17.70
2009,08,20,03,42,17.70
2009,08,20,03,43,17.70
2009,08,20,03,44,17.70
2009,08,20,03,45,17.70
2009,08,20,03,46,17.70
2009,08,20,03,47,17.70
2009,08,20,03,48,17.60
2009,08,20,03,49,17.60
2009,08,20,03,50,17.60
2009,08,20,03,51,17.50
2009,08,20,03,52,17.50
2009,08,20,03,53,17.50
2009,08,20,03,54,17.50
2009,08,20,03,55,17.40
2009,08,20,03,56,17.40
2009,08,20,03,57,17.40
2009,08,20,03,58,17.40
2009,08,20,03,59,17.40
2009,08,20,04,00,17.40
2009,08,20,04,01,17.40
2009,08,20,04,02,17.40
2009,08,20,04,03,17.40
2009,08,20,04,04,17.40
2009,08,20,04,05,17.40
2009,08,20,04,06,17.40
2009,08,20,04,07,17.50
2009,08,20,04,08,17.50
2009,08,20,04,09,17.50
2009,08,20,04,10,17.50
2009,08,20,04,11,17.60
2009,08,20,04,12,17.60
2009,08,20,04,13,17.60
2009,08,20,04,14,17.60
2009,08,20,04,15,17.60
2009,08,20,04,16,17.60
2009,08,20,04,17,17.60
2009,08,20,04,18,17.60
2009,08,20,04,19,17.60
2009,08,20,04,20,17.60
2009,08,20,04,21,17.60
2009,08,20,04,22,17.60
2009,08,20,04,23,17.60
2009,08,20,04,24,17.60
2009,08,20,04,25,17.70
2009,08,20,04,26,17.70
2009,08,20,04,27,17.70
2009,08,20,04,28,17.60
2009,08,20,04,29,17.60
2009,08,20,04,30,17.60
2009,08,20,04,31,17.60
2009,08,20,04,32,17.60
2009,08,20,04,33,17.60
2009,08,20,04,34,17.60
2009,08,20,04,35,17.60
2009,08,20,04,36,17.60
2009,08,20,04,37,17.60
2009,08,20,04,38,17.60
2009,08,20,04,39,17.70
2009,08,20,04,40,17.70
2009,08,20,04,41,17.80
2009,08,20,04,42,17.90
2009,08,20,04,43,18.00
2009,08,20,04,44,18.10
2009,08,20,04,45,18.20
2009,08,20,04,46,18.20
2009,08,20,04,47,18.30
2009,08,20,04,48,18.40
2009,08,20,04,49,18.40
2009,08,20,04,50,18.40
2009,08,20,04,51,18.40
2009,08,20,04,52,18.40
2009,08,20,04,53,18.40
2009,08,20,04,54,18.40
2009,08,20,04,55,18.40
2009,08,20,04,56,18.30
2009,08,20,04,57,18.30
2009,08,20,04,58,18.30
2009,08,20,04,59,18.20
2009,08,20,05,00,18.20
2009,08,20,05,01,18.20
2009,08,20,05,02,18.20
2009,08,20,05,03,18.20
2009,08,20,05,04,18.10
2009,08,20,05,05,18.10
2009,08,20,05,06,18.10
2009,08,20,05,07,18.00
2009,08,20,05,08,17.90
2009,08,20,05,09,17.90
2009,08,20,05,10,17.90
2009,08,20,05,11,17.90
2009,08,20,05,12,17.90
2009,08,20,05,13,17.90
2009,08,20,05,14,17.80
2009,08,20,05,15,17.80
2009,08,20,05,16,17.80
2009,08,20,05,17,17.80
2009,08,20,05,18,17.70
2009,08,20,05,19,17.70
2009,08,20,05,20,17.70
2009,08,20,05,21,17.70
2009,08,20,05,22,17.60
2009,08,20,05,23,17.60
2009,08,20,05,24,17.50
2009,08,20,05,25,17.40
2009,08,20,05,26,17.30
2009,08,20,05,27,17.30
2009,08,20,05,28,17.20
2009,08,20,05,29,17.10
2009,08,20,05,30,17.10
2009,08,20,05,31,17.00
2009,08,20,05,32,17.00
2009,08,20,05,33,16.90
2009,08,20,05,34,16.90
2009,08,20,05,35,16.90
2009,08,20,05,36,16.80
2009,08,20,05,37,16.80
2009,08,20,05,38,16.80
2009,08,20,05,39,16.70
2009,08,20,05,40,16.70
2009,08,20,05,41,16.70
2009,08,20,05,42,16.70
2009,08,20,05,43,16.70
2009,08,20,05,44,16.60
2009,08,20,05,45,16.60
2009,08,20,05,46,16.50
2009,08,20,05,47,16.40
2009,08,20,05,48,16.40
2009,08,20,05,49,16.40
2009,08,20,05,50,16.40
2009,08,20,05,51,16.40
2009,08,20,05,52,16.40
2009,08,20,05,53,16.40
2009,08,20,05,54,16.40
2009,08,20,05,55,16.40
2009,08,20,05,56,16.40
2009,08,20,05,57,16.30
2009,08,20,05,58,16.30
2009,08,20,05,59,16.30
2009,08,20,06,00,16.30
2009,08,20,06,01,16.30
2009,08,20,06,02,16.30
2009,08,20,06,03,16.20
2009,08,20,06,04,16.20
2009,08,20,06,05,16.20
2009,08,20,06,06,16.20
2009,08,20,06,07,16.20
2009,08,20,06,08,16.10
2009,08,20,06,09,16.10
2009,08,20,06,10,16.10
2009,08,20,06,11,16.00
2009,08,20,06,12,15.90
2009,08,20,06,13,15.90
2009,08,20,06,14,15.80
2009,08,20,06,15,15.80
2009,08,20,06,16,15.70
2009,08,20,06,17,15.60
2009,08,20,06,18,15.60
2009,08,20,06,19,15.50
2009,08,20,06,20,15.50
2009,08,20,06,21,15.40
2009,08,20,06,22,15.40
2009,08,20,06,23,15.40
2009,08,20,06,24,15.30
2009,08,20,06,25,15.30
2009,08,20,06,26,15.30
2009,08,20,06,27,15.30
2009,08,20,06,28,15.30
2009,08,20,06,29,15.30
2009,08,20,06,30,15.30
2009,08,20,06,31,15.30
2009,08,20,06,32,15.30
2009,08,20,06,33,15.30
2009,08,20,06,34,15.30
2009,08,20,06,35,15.30
2009,08,20,06,36,15.30
2009,08,20,06,37,15.30
2009,08,20,06,38,15.30
2009,08,20,06,39,15.30
2009,08,20,06,40,15.30
2009,08,20,06,41,15.30
2009,08,20,06,42,15.30
2009,08,20,06,43,15.30
2009,08,20,06,44,15.20
2009,08,20,06,45,15.20
2009,08,20,06,46,15.20
2009,08,20,06,47,15.20
2009,08,20,06,48,15.20
2009,08,20,06,49,15.20
2009,08,20,06,50,15.30
2009,08,20,06,51,15.30
2009,08,20,06,52,15.30
2009,08,20,06,53,15.30
2009,08,20,06,54,15.30
2009,08,20,06,55,15.30
2009,08,20,06,56,15.40
2009,08,20,06,57,15.40
2009,08,20,06,58,15.50
2009,08,20,06,59,15.50
2009,08,20,07,00,15.50
2009,08,20,07,01,15.50
2009,08,20,07,02,15.60
2009,08,20,07,03,15.60
2009,08,20,07,04,15.60
2009,08,20,07,05,15.60
2009,08,20,07,06,15.60
2009,08,20,07,07,15.60
2009,08,20,07,08,15.60
2009,08,20,07,09,15.70
2009,08,20,07,10,15.70
2009,08,20,07,11,15.80
2009,08,20,07,12,15.80
2009,08,20,07,13,15.80
2009,08,20,07,14,15.80
2009,08,20,07,15,15.80
2009,08,20,07,16,15.90
2009,08,20,07,17,15.90
2009,08,20,07,18,15.90
2009,08,20,07,19,16.10
2009,08,20,07,20,16.10
2009,08,20,07,21,16.10
2009,08,20,07,22,16.10
2009,08,20,07,23,16.10
2009,08,20,07,24,16.10
2009,08,20,07,25,16.10
2009,08,20,07,26,16.20
2009,08,20,07,27,16.20
2009,08,20,07,28,16.20
2009,08,20,07,29,16.20
2009,08,20,07,30,16.30
2009,08,20,07,31,16.30
2009,08,20,07,32,16.40
2009,08,20,07,33,16.40
2009,08,20,07,34,16.40
2009,08,20,07,35,16.50
2009,08,20,07,36,16.60
2009,08,20,07,37,16.60
2009,08,20,07,38,16.60
2009,08,20,07,39,16.70
2009,08,20,07,40,16.70
2009,08,20,07,41,16.70
2009,08,20,07,42,16.80
2009,08,20,07,43,16.80
2009,08,20,07,44,16.80
2009,08,20,07,45,16.90
2009,08,20,07,46,16.90
2009,08,20,07,47,17.00
2009,08,20,07,48,17.00
2009,08,20,07,49,17.00
2009,08,20,07,50,17.10
2009,08,20,07,51,17.10
2009,08,20,07,52,17.20
2009,08,20,07,53,17.30
2009,08,20,07,54,17.30
2009,08,20,07,55,17.30
2009,08,20,07,56,17.40
2009,08,20,07,57,17.40
2009,08,20,07,58,17.50
2009,08,20,07,59,17.50
2009,08,20,08,00,17.50
2009,08,20,08,01,17.60
2009,08,20,08,02,17.60
2009,08,20,08,03,17.60
2009,08,20,08,04,17.70
2009,08,20,08,05,17.70
2009,08,20,08,06,17.70
2009,08,20,08,07,17.80
2009,08,20,08,08,17.80
2009,08,20,08,09,17.90
2009,08,20,08,10,17.90
2009,08,20,08,11,17.90
2009,08,20,08,12,17.90
2009,08,20,08,13,17.90
2009,08,20,08,14,18.00
2009,08,20,08,15,18.10
2009,08,20,08,16,18.10
2009,08,20,08,17,18.10
2009,08,20,08,18,18.10
2009,08,20,08,19,18.10
2009,08,20,08,20,18.00
2009,08,20,08,21,17.90
2009,08,20,08,22,17.90
2009,08,20,08,23,17.90
2009,08,20,08,24,17.90
2009,08,20,08,25,17.90
2009,08,20,08,26,17.90
2009,08,20,08,27,18.00
2009,08,20,08,28,18.10
2009,08,20,08,29,18.10
2009,08,20,08,30,18.10
2009,08,20,08,31,18.10
2009,08,20,08,32,18.20
2009,08,20,08,33,18.20
2009,08,20,08,34,18.20
2009,08,20,08,35,18.30
2009,08,20,08,36,18.30
2009,08,20,08,37,18.30
2009,08,20,08,38,18.40
2009,08,20,08,39,18.50
2009,08,20,08,40,18.50
2009,08,20,08,41,18.60
2009,08,20,08,42,18.70
2009,08,20,08,43,18.80
2009,08,20,08,44,18.90
2009,08,20,08,45,18.90
2009,08,20,08,46,19.00
2009,08,20,08,47,19.10
2009,08,20,08,48,19.20
2009,08,20,08,49,19.30
2009,08,20,08,50,19.30
2009,08,20,08,51,19.10
2009,08,20,08,52,19.00
2009,08,20,08,53,18.90
2009,08,20,08,54,18.90
2009,08,20,08,55,18.90
2009,08,20,08,56,18.80
2009,08,20,08,57,18.70
2009,08,20,08,58,18.60
2009,08,20,08,59,18.60
2009,08,20,09,00,18.60
2009,08,20,09,01,18.70
2009,08,20,09,02,18.80
2009,08,20,09,03,19.00
2009,08,20,09,04,19.10
2009,08,20,09,05,19.20
2009,08,20,09,06,19.20
2009,08,20,09,07,19.20
2009,08,20,09,08,19.20
2009,08,20,09,09,19.20
2009,08,20,09,10,19.30
2009,08,20,09,11,19.30
2009,08,20,09,12,19.40
2009,08,20,09,13,19.50
2009,08,20,09,14,19.50
2009,08,20,09,15,19.40
2009,08,20,09,16,19.20
2009,08,20,09,17,19.00
2009,08,20,09,18,18.90
2009,08,20,09,19,18.70
2009,08,20,09,20,18.60
2009,08,20,09,21,18.60
2009,08,20,09,22,18.50
2009,08,20,09,23,18.50
2009,08,20,09,24,18.40
2009,08,20,09,25,18.30
2009,08,20,09,26,18.20
2009,08,20,09,27,18.20
2009,08,20,09,28,18.00
2009,08,20,09,29,17.80
2009,08,20,09,30,17.70
2009,08,20,09,31,17.70
2009,08,20,09,32,17.60
2009,08,20,09,33,17.50
2009,08,20,09,34,17.40
2009,08,20,09,35,17.40
2009,08,20,09,36,17.30
2009,08,20,09,37,17.30
2009,08,20,09,38,17.30
2009,08,20,09,39,17.40
2009,08,20,09,40,17.50
2009,08,20,09,41,17.50
2009,08,20,09,42,17.60
2009,08,20,09,43,17.70
2009,08,20,09,44,17.80
2009,08,20,09,45,17.90
2009,08,20,09,46,17.90
2009,08,20,09,47,18.10
2009,08,20,09,48,18.30
2009,08,20,09,49,18.40
2009,08,20,09,50,18.40
2009,08,20,09,51,18.50
2009,08,20,09,52,18.60
2009,08,20,09,53,18.60
2009,08,20,09,54,18.60
2009,08,20,09,55,18.60
2009,08,20,09,56,18.70
2009,08,20,09,57,18.70
2009,08,20,09,58,18.90
2009,08,20,09,59,19.10
2009,08,20,10,00,19.20
2009,08,20,10,01,19.30
2009,08,20,10,02,19.40
2009,08,20,10,03,19.60
2009,08,20,10,04,19.60
2009,08,20,10,05,19.70
2009,08,20,10,06,19.70
2009,08,20,10,07,19.80
2009,08,20,10,08,20.00
2009,08,20,10,09,20.10
2009,08,20,10,10,20.30
2009,08,20,10,11,20.50
2009,08,20,10,12,20.60
2009,08,20,10,13,20.60
2009,08,20,10,14,20.70
2009,08,20,10,15,20.90
2009,08,20,10,16,20.90
2009,08,20,10,17,21.00
2009,08,20,10,18,20.90
2009,08,20,10,19,20.90
2009,08,20,10,20,20.90
2009,08,20,10,21,20.90
2009,08,20,10,22,20.80
2009,08,20,10,23,20.80
2009,08,20,10,24,20.80
2009,08,20,10,25,20.80
2009,08,20,10,26,20.90
2009,08,20,10,27,20.90
2009,08,20,10,28,20.90
2009,08,20,10,29,20.90
2009,08,20,10,30,21.00
2009,08,20,10,31,21.00
2009,08,20,10,32,21.00
2009,08,20,10,33,21.10
2009,08,20,10,34,21.00
2009,08,20,10,35,20.90
2009,08,20,10,36,20.80
2009,08,20,10,37,20.70
2009,08,20,10,38,20.80
2009,08,20,10,39,20.90
2009,08,20,10,40,20.90
2009,08,20,10,41,21.00
2009,08,20,10,42,21.10
2009,08,20,10,43,21.20
2009,08,20,10,44,21.20
2009,08,20,10,45,21.20
2009,08,20,10,46,21.20
2009,08,20,10,47,21.30
2009,08,20,10,48,21.30
2009,08,20,10,49,21.30
2009,08,20,10,50,21.40
2009,08,20,10,51,21.50
2009,08,20,10,52,21.60
2009,08,20,10,53,21.60
2009,08,20,10,54,21.70
2009,08,20,10,55,21.80
2009,08,20,10,56,21.90
2009,08,20,10,57,22.00
2009,08,20,10,58,22.00
2009,08,20,10,59,22.00
2009,08,20,11,00,22.10
2009,08,20,11,01,22.20
2009,08,20,11,02,22.30
2009,08,20,11,03,22.30
2009,08,20,11,04,22.20
2009,08,20,11,05,22.20
2009,08,20,11,06,22.00
2009,08,20,11,07,21.80
2009,08,20,11,08,21.70
2009,08,20,11,09,21.70
2009,08,20,11,10,21.70
2009,08,20,11,11,21.80
2009,08,20,11,12,21.60
2009,08,20,11,13,21.60
2009,08,20,11,14,21.60
2009,08,20,11,15,21.60
2009,08,20,11,16,21.70
2009,08,20,11,17,21.70
2009,08,20,11,18,21.70
2009,08,20,11,19,21.60
2009,08,20,11,20,21.60
2009,08,20,11,21,21.60
2009,08,20,11,22,21.60
2009,08,20,11,23,21.60
2009,08,20,11,24,21.60
2009,08,20,11,25,21.50
2009,08,20,11,26,21.30
2009,08,20,11,27,21.20
2009,08,20,11,28,21.00
2009,08,20,11,29,20.90
2009,08,20,11,30,20.80
2009,08,20,11,31,20.80
2009,08,20,11,32,20.80
2009,08,20,11,33,20.80
2009,08,20,11,34,20.80
2009,08,20,11,35,20.80
2009,08,20,11,36,20.90
2009,08,20,11,37,21.00
2009,08,20,11,38,21.00
2009,08,20,11,39,21.00
2009,08,20,11,40,21.00
2009,08,20,11,41,21.00
2009,08,20,11,42,21.00
2009,08,20,11,43,21.10
2009,08,20,11,44,21.10
2009,08,20,11,45,21.20
2009,08,20,11,46,21.30
2009,08,20,11,47,21.40
2009,08,20,11,48,21.50
2009,08,20,11,49,21.60
2009,08,20,11,50,21.60
2009,08,20,11,51,21.60
2009,08,20,11,52,21.60
2009,08,20,11,53,21.70
2009,08,20,11,54,21.60
2009,08,20,11,55,21.60
2009,08,20,11,56,21.50
2009,08,20,11,57,21.40
2009,08,20,11,58,21.40
2009,08,20,11,59,21.40
2009,08,20,12,00,21.30
2009,08,20,12,01,21.30
2009,08,20,12,02,21.40
2009,08,20,12,03,21.40
2009,08,20,12,04,21.40
2009,08,20,12,05,21.40
2009,08,20,12,06,21.40
2009,08,20,12,07,21.40
2009,08,20,12,08,21.40
2009,08,20,12,09,21.30
2009,08,20,12,10,21.40
2009,08,20,12,11,21.40
2009,08,20,12,12,21.40
2009,08,20,12,13,21.40
2009,08,20,12,14,21.60
2009,08,20,12,15,21.60
2009,08,20,12,16,21.70
2009,08,20,12,17,21.80
2009,08,20,12,18,21.90
2009,08,20,12,19,22.00
2009,08,20,12,20,22.20
2009,08,20,12,21,22.20
2009,08,20,12,22,22.20
2009,08,20,12,23,22.20
2009,08,20,12,24,22.20
2009,08,20,12,25,22.30
2009,08,20,12,26,22.30
2009,08,20,12,27,22.50
2009,08,20,12,28,22.60
2009,08,20,12,29,22.70
2009,08,20,12,30,22.80
2009,08,20,12,31,22.90
2009,08,20,12,32,22.90
2009,08,20,12,33,22.90
2009,08,20,12,34,22.90
2009,08,20,12,35,23.10
2009,08,20,12,36,23.20
2009,08,20,12,37,23.30
2009,08,20,12,38,23.40
2009,08,20,12,39,23.50
2009,08,20,12,40,23.70
2009,08,20,12,41,23.70
2009,08,20,12,42,23.70
2009,08,20,12,43,23.70
2009,08,20,12,44,23.70
2009,08,20,12,45,23.80
2009,08,20,12,46,23.80
2009,08,20,12,47,23.90
2009,08,20,12,48,23.90
2009,08,20,12,49,23.90
2009,08,20,12,50,23.90
2009,08,20,12,51,23.80
2009,08,20,12,52,23.80
2009,08,20,12,53,23.80
2009,08,20,12,54,23.80
2009,08,20,12,55,23.80
2009,08,20,12,56,23.90
2009,08,20,12,57,23.90
2009,08,20,12,58,23.90
2009,08,20,12,59,23.90
2009,08,20,13,00,23.80
2009,08,20,13,01,23.80
2009,08,20,13,02,23.80
2009,08,20,13,03,23.90
2009,08,20,13,04,23.90
2009,08,20,13,05,23.80
2009,08,20,13,06,23.70
2009,08,20,13,07,23.70
2009,08,20,13,08,23.70
2009,08,20,13,09,23.70
2009,08,20,13,10,23.60
2009,08,20,13,11,23.70
2009,08,20,13,12,23.70
2009,08,20,13,13,23.70
2009,08,20,13,14,23.70
2009,08,20,13,15,23.70
2009,08,20,13,16,23.80
2009,08,20,13,17,23.80
2009,08,20,13,18,23.90
2009,08,20,13,19,23.90
2009,08,20,13,20,23.80
2009,08,20,13,21,23.80
2009,08,20,13,22,23.70
2009,08,20,13,23,23.70
2009,08,20,13,24,23.80
2009,08,20,13,25,23.90
2009,08,20,13,26,24.10
2009,08,20,13,27,24.20
2009,08,20,13,28,24.30
2009,08,20,13,29,24.30
2009,08,20,13,30,24.40
2009,08,20,13,31,24.50
2009,08,20,13,32,24.60
2009,08,20,13,33,24.60
2009,08,20,13,34,24.60
2009,08,20,13,35,24.50
2009,08,20,13,36,24.50
2009,08,20,13,37,24.50
2009,08,20,13,38,24.60
2009,08,20,13,39,24.60
2009,08,20,13,40,24.70
2009,08,20,13,41,24.80
2009,08,20,13,42,24.80
2009,08,20,13,43,24.70
2009,08,20,13,44,24.70
2009,08,20,13,45,24.70
2009,08,20,13,46,24.80
2009,08,20,13,47,24.90
2009,08,20,13,48,24.80
2009,08,20,13,49,24.80
2009,08,20,13,50,24.70
2009,08,20,13,51,24.60
2009,08,20,13,52,24.60
2009,08,20,13,53,24.60
2009,08,20,13,54,24.70
2009,08,20,13,55,24.80
2009,08,20,13,56,24.80
2009,08,20,13,57,24.80
2009,08,20,13,58,24.90
2009,08,20,13,59,24.80
2009,08,20,14,00,24.80
2009,08,20,14,01,24.90
2009,08,20,14,02,24.90
2009,08,20,14,03,24.90
2009,08,20,14,04,24.90
2009,08,20,14,05,24.80
2009,08,20,14,06,24.80
2009,08,20,14,07,24.80
2009,08,20,14,08,24.90
2009,08,20,14,09,24.90
2009,08,20,14,10,24.80
2009,08,20,14,11,24.80
2009,08,20,14,12,24.90
2009,08,20,14,13,25.00
2009,08,20,14,14,25.00
2009,08,20,14,15,25.10
2009,08,20,14,16,25.10
2009,08,20,14,17,25.20
2009,08,20,14,18,25.30
2009,08,20,14,19,25.40
2009,08,20,14,20,25.50
2009,08,20,14,21,25.60
2009,08,20,14,22,25.60
2009,08,20,14,23,25.60
2009,08,20,14,24,25.60
2009,08,20,14,25,25.60
2009,08,20,14,26,25.60
2009,08,20,14,27,25.60
2009,08,20,14,28,25.60
2009,08,20,14,29,25.70
2009,08,20,14,30,25.70
2009,08,20,14,31,25.50
2009,08,20,14,32,25.40
2009,08,20,14,33,25.50
2009,08,20,14,34,25.60
2009,08,20,14,35,25.50
2009,08,20,14,36,25.50
2009,08,20,14,37,25.50
2009,08,20,14,38,25.50
2009,08,20,14,39,25.50
2009,08,20,14,40,25.50
2009,08,20,14,41,25.60
2009,08,20,14,42,25.60
2009,08,20,14,43,25.70
2009,08,20,14,44,25.80
2009,08,20,14,45,25.90
2009,08,20,14,46,26.00
2009,08,20,14,47,26.10
2009,08,20,14,48,26.00
2009,08,20,14,49,26.00
2009,08,20,14,50,26.00
2009,08,20,14,51,26.10
2009,08,20,14,52,26.10
2009,08,20,14,53,26.10
2009,08,20,14,54,26.20
2009,08,20,14,55,26.00
2009,08,20,14,56,25.90
2009,08,20,14,57,25.80
2009,08,20,14,58,25.80
2009,08,20,14,59,25.90
2009,08,20,15,00,25.90
2009,08,20,15,01,26.00
2009,08,20,15,02,26.00
2009,08,20,15,03,26.00
2009,08,20,15,04,26.00
2009,08,20,15,05,26.00
2009,08,20,15,06,25.90
2009,08,20,15,07,25.80
2009,08,20,15,08,25.60
2009,08,20,15,09,25.70
2009,08,20,15,10,25.70
2009,08,20,15,11,25.80
2009,08,20,15,12,25.90
2009,08,20,15,13,26.00
2009,08,20,15,14,26.00
2009,08,20,15,15,26.10
2009,08,20,15,16,26.10
2009,08,20,15,17,26.10
2009,08,20,15,18,25.90
2009,08,20,15,19,25.70
2009,08,20,15,20,25.60
2009,08,20,15,21,25.60
2009,08,20,15,22,25.70
2009,08,20,15,23,25.70
2009,08,20,15,24,25.70
2009,08,20,15,25,25.70
2009,08,20,15,26,25.60
2009,08,20,15,27,25.60
2009,08,20,15,28,25.50
2009,08,20,15,29,25.50
2009,08,20,15,30,25.50
2009,08,20,15,31,25.50
2009,08,20,15,32,25.50
2009,08,20,15,33,25.50
2009,08,20,15,34,25.40
2009,08,20,15,35,25.30
2009,08,20,15,36,25.30
2009,08,20,15,37,25.30
2009,08,20,15,38,25.20
2009,08,20,15,39,25.30
2009,08,20,15,40,25.30
2009,08,20,15,41,25.30
2009,08,20,15,42,25.40
2009,08,20,15,43,25.40
2009,08,20,15,44,25.30
2009,08,20,15,45,25.20
2009,08,20,15,46,25.20
2009,08,20,15,47,25.30
2009,08,20,15,48,25.30
2009,08,20,15,49,25.30
2009,08,20,15,50,25.30
2009,08,20,15,51,25.40
2009,08,20,15,52,25.40
2009,08,20,15,53,25.40
2009,08,20,15,54,25.50
2009,08,20,15,55,25.60
2009,08,20,15,56,25.70
2009,08,20,15,57,25.70
2009,08,20,15,58,25.70
2009,08,20,15,59,25.80
2009,08,20,16,00,25.70
2009,08,20,16,01,25.70
2009,08,20,16,02,25.70
2009,08,20,16,03,25.70
2009,08,20,16,04,25.70
2009,08,20,16,05,25.70
2009,08,20,16,06,25.60
2009,08,20,16,07,25.60
2009,08,20,16,08,25.60
2009,08,20,16,09,25.50
2009,08,20,16,10,25.50
2009,08,20,16,11,25.50
2009,08,20,16,12,25.50
2009,08,20,16,13,25.50
2009,08,20,16,14,25.60
2009,08,20,16,15,25.60
2009,08,20,16,16,25.60
2009,08,20,16,17,25.60
2009,08,20,16,18,25.40
2009,08,20,16,19,25.30
2009,08,20,16,20,25.20
2009,08,20,16,21,25.20
2009,08,20,16,22,25.30
2009,08,20,16,23,25.40
2009,08,20,16,24,25.50
2009,08,20,16,25,25.60
2009,08,20,16,26,25.70
2009,08,20,16,27,25.90
2009,08,20,16,28,25.90
2009,08,20,16,29,26.00
2009,08,20,16,30,26.10
2009,08,20,16,31,26.10
2009,08,20,16,32,26.10
2009,08,20,16,33,26.00
2009,08,20,16,34,26.00
2009,08,20,16,35,25.90
2009,08,20,16,36,25.90
2009,08,20,16,37,25.90
2009,08,20,16,38,26.00
2009,08,20,16,39,26.10
2009,08,20,16,40,26.10
2009,08,20,16,41,26.10
2009,08,20,16,42,26.10
2009,08,20,16,43,26.20
2009,08,20,16,44,26.20
2009,08,20,16,45,26.30
2009,08,20,16,46,26.30
2009,08,20,16,47,26.20
2009,08,20,16,48,26.20
2009,08,20,16,49,26.10
2009,08,20,16,50,26.10
2009,08,20,16,51,26.00
2009,08,20,16,52,26.00
2009,08,20,16,53,25.90
2009,08,20,16,54,25.90
2009,08,20,16,55,25.90
2009,08,20,16,56,25.90
2009,08,20,16,57,25.90
2009,08,20,16,58,25.80
2009,08,20,16,59,25.70
2009,08,20,17,00,25.70
2009,08,20,17,01,25.70
2009,08,20,17,02,25.80
2009,08,20,17,03,25.80
2009,08,20,17,04,25.80
2009,08,20,17,05,25.80
2009,08,20,17,06,25.70
2009,08,20,17,07,25.70
2009,08,20,17,08,25.70
2009,08,20,17,09,25.70
2009,08,20,17,10,25.80
2009,08,20,17,11,25.80
2009,08,20,17,12,25.90
2009,08,20,17,13,25.90
2009,08,20,17,14,25.90
2009,08,20,17,15,26.00
2009,08,20,17,16,26.00
2009,08,20,17,17,26.10
2009,08,20,17,18,26.10
2009,08,20,17,19,26.10